Location: Juzet
(42.9779°N, 0.7597°E)
Time: 02:51:14
(UTC+00:00)

Cosmos 1867 - Pass Details

Date: 14 July 2020
Orbit: 778 x 798 km, 65.0° (Epoch: 04 August)

Event Time Altitude Azimuth Distance (km) Brightness Sun altitude
Exits shadow 03:47:58 - 212° (SSW) 2,588 5.6 -7.3°
Reaches altitude 10° 03:48:35 10° 212° (SSW) 2,348 5.4 -7.2°
Maximum altitude 03:54:00 89° 304° (WNW) 799 3.6 -6.4°
Drops below altitude 10° 03:59:29 10° 34° (NNE) 2,373 7.5 -5.6°
Sets 04:01:55 0° 34° (NE) 3,308 8.4 -5.3°
